Voltar ao catálogo

SDA_1681

AtivoCiênciaPO
NORAD 65991·PAYLOAD·🇺🇸 United States

Lançado Oct 15, 2025 de Vandenberg Space Force Base

Loading…

Próximas Passagens (próximas 24 horas)

TLE

AtualizadoSource: Space-Track

Época: Sep 14, 2026, 01:00 UTC

1 65991U 25230T   26257.04180648  .00000151  00000-0  12238-3 0  9991
2 65991  81.2999 129.1068 0003988 334.8048  25.2914 13.85313054 46124

Acompanhe SDA_1681 em tempo real com AllMySat

Download on the App Store